Regional Weather Roundup
Issued by NWS

Home | Current Version | Previous Version | Text Only | Print | Product List | Glossary On
Versions: 1 2 3 4 5 6 7 8 9 10 11 12 13 14 15 16 17 18 19 20 21 22 23 24 25 26 27 28 29 30 31 32 33 34 35 36 37 38 39 40 41 42 43 44 45 46 47 48 49 50
000
ASCA44 KEWX 251520
RWRMX

LATIN AMERICA AND CARIBBEAN REGIONAL WEATHER ROUNDUP
NATIONAL WEATHER SERVICE AUSTIN/SAN ANTONIO TX
1000 AM CDT THU AUG 25 2016

NOTE: "FAIR" INDICATED FEW OR NO CLOUDS BELOW 12,000 FEET WITH NO
SIGNIFICANT WEATHER AND/OR OBSTRUCTIONS TO VISIBILITY.

BAJA CALIFORNIA

CITY           SKY/WX    TMP DP  RH WIND       PRES   REMARKS
LORETO         MOSUNNY   86  75  70 CALM      29.89R HX  95
LA PAZ         SUNNY     81  70  69 SE6       29.96R
MEXICALI       SUNNY     82  70  65 SE6       29.86R
S.J. DEL CABO  SUNNY     79  70  73 CALM      29.96S
TIJUANA        CLOUDY    66  59  77 NW5       29.99R

NORTHWESTERN MEXICO

CITY           SKY/WX    TMP DP  RH WIND       PRES   REMARKS
CULIACAN       CLOUDY    79  73  83 NE5       29.95S
DURANGO        CLOUDY    61  57  88 N3        30.35S
GUAYMAS        MOSUNNY   84  75  74 CALM      29.90R HX  92
HERMOSILLO     SUNNY     86  73  66 E7        29.99R HX  93
CD. JUAREZ     PTSUNNY   72  55  56 NW5       30.10R
LOS MOCHIS     PTSUNNY   82  72  69 CALM      29.95
OBREGON        MOSUNNY   82  68  61 E8        29.94R

NORTHEASTERN MEXICO

CITY           SKY/WX    TMP DP  RH WIND       PRES   REMARKS
CHIHUAHUA      PTSUNNY   66  57  72 CALM      30.24R
MATAMOROS      MOSUNNY   86  73  66 S9        30.02S HX  93
MONCLOVA       MOSUNNY   86  66  51 CALM      30.09R
MONTERREY      MOSUNNY   79  68  69 NE6       30.05R
NUEVO LAREDO   MOSUNNY   79  73  83 SE10      30.04S
PIEDRAS NEGRAS PTSUNNY   77  72  83 SE7       30.09R
REYNOSA        MOSUNNY   81  72  74 S9        30.03S
SALTILLO       SUNNY     79  55  44 CALM      30.28R
TORREON        CLOUDY    70  64  83 NW6       30.22S
CD. VICTORIA   SUNNY     81  68  65 S9        30.04S

WESTERN MEXICO

CITY           SKY/WX    TMP DP  RH WIND       PRES   REMARKS
AGUASCALIENTES PTSUNNY   57  54  88 NW5       30.37R
COLIMA         MOSUNNY   73  64  73 CALM      30.08S
DEL BAJIO      PTSUNNY   63  59  88 CALM      30.38R
GUADALAJARA    CLOUDY    64  59  82 CALM      30.28S FOG
MANZANILLO     PTSUNNY   82  77  83 N6        29.91R HX  91
MAZATLAN       CLOUDY    81  77  89 N3        29.96R
P. VALLARTA    CLOUDY    79  72  78 CALM      29.94R
URUAPAN        MOSUNNY   68  63  83 CALM      30.26R
ZACATECAS      PTSUNNY   59  52  77 CALM      30.37S

CENTRAL MEXICO

CITY           SKY/WX    TMP DP  RH WIND       PRES   REMARKS
CUERNAVACA     PTSUNNY   70  59  68 CALM      30.21R
MEXICO CITY    MOSUNNY   63  52  67 CALM      30.41R
MORELIA        PTSUNNY   63  59  88 CALM      30.32F
POZA RICA      MOSUNNY   81  73  78 N5        30.08R
PUEBLA         PTSUNNY   59  52  77 N9        30.39F
QUERETARO      PTSUNNY   64  55  72 S2        30.39R
S. LUIS POTOSI CLOUDY    61  54  77 CALM      30.33S
TAMPICO        MOSUNNY   82  75  78 W9        30.03S
TOLUCA         PTSUNNY   54  48  82 CALM      30.47

SOUTHERN MEXICO

CITY           SKY/WX    TMP DP  RH WIND       PRES   REMARKS
ACAPULCO       MOSUNNY   81  73  78 NW6       29.90S
B. DE HUATULCO MOSUNNY   82  64  54 CALM      29.95S
OAXACA         MOSUNNY   66  54  63 N8        30.29R
P. ESCONDIDO   SUNNY     82  70  65 NE6       29.98R
VERACRUZ       MOSUNNY   82  73  74 NW2       30.02R
ZIHUATANEJO    PTSUNNY   82  73  74 CALM      29.91S

YUCATAN PENINSULA

CITY           SKY/WX    TMP DP  RH WIND       PRES   REMARKS
CAMPECHE       MOSUNNY   86  79  79 NE9       29.95S HX  99
CANCUN         PTSUNNY   86  77  74 NE6       29.96S HX  97
CHETUMAL       PTSUNNY   81  79  94 CALM      29.96S
CD. DEL CARMEN MOSUNNY   84  72  65 CALM      29.97S
COZUMEL        MOSUNNY   82  77  83 NE10      29.95S HX  91
MERIDA         PTSUNNY   88  75  66 E5        29.98S HX  97
MINATITLAN     MOSUNNY   82  70  65 CALM      29.93S
TAPACHULA      MOSUNNY   86  79  79 CALM      29.85R HX  99
TUX. GUTIERREZ SUNNY     79  64  61 W6        30.03S
VILLAHERMOSA   MOSUNNY   81  75  83 CALM      30.01R

CENTRAL AMERICA

CITY           SKY/WX    TMP DP  RH WIND       PRES   REMARKS
BELIZE CITY    MOSUNNY   84  79  84 NW8       29.95F HX  96
MANAGUA        MOSUNNY   88  73  62 NE5       29.83S HX  96

CARIBBEAN

CITY           SKY/WX    TMP DP  RH WIND       PRES   REMARKS
ARUBA          MOSUNNY   91  77  62 SE17      29.80S HX 105
CURACAO        MOSUNNY   95  72  46 SE14      29.86S HX 103
KINGSTON       MOSUNNY   86  75  70 S7        29.83S HX  95
NASSAU         MOSUNNY   90  79  70 NE9       29.97S HX 105
SAN JUAN       PTSUNNY   90  75  62 E12       29.95S HX 100
SANTO DOMINGO  PTSUNNY   79  75  89 N5        29.89S
ST. CROIX      MOSUNNY   90  79  70 E18       29.95  HX 105
ST. KITTS      MOSUNNY   86  79  79 E12       29.94S HX  99
ST. MAARTEN    MOSUNNY   88  77  70 E14       29.94S HX 100

$$





USA.gov is the U.S. government's official web portal to all federal, state and local government web resources and services.